RH
72 68 64 71 67 68 83 75 84 63 63 51 46 43 45 64 77 77 70 65 62 89 82 61 64 64 60 60 56 52 50 48 45 40 37 37 38 38 40 32 28 28 25 24
78 67 69 78 70 70 68 64 72 69 68 45 42 50 66 76 81 78 71 67 53 60 78 78 51 54 53 53 57 51 48 43 37 38 42 41 38 38 40 30 26 24 26 28
93 65 70 79 71 66 63 60 57 73 55 43 47 62 72 83 78 77 68 62 48 43 40 52 80 66 60 52 44 40 38 38 41 46 52 53 46 42 44 30 28 33 35 32
96 81 92 55 68 66 73 74 61 58 54 51 59 66 74 76 77 70 63 50 45 41 39 40 42 42 42 43 41 42 43 50 66 68 68 61 48 32 32 39 39 31 32 33
99 94 71 77 80 83 87 75 72 76 63 64 65 80 82 71 53 54 49 45 43 42 43 44 44 42 41 43 44 46 53 65 78 78 68 45 47 61 55 35 32 34 35 36
94 97 96 59 57 61 68 95 74 71 76 74 68 93 92 73 61 54 46 46 52 48 49 51 53 53 55 59 65 66 65 70 78 66 64 56 38 33 33 33 36 34 35 36
92 96 81 53 61 59 90 68 63 80 79 65 73 85 76 76 82 74 75 62 76 80 77 66 71 76 85 84 93 92 76 71 75 73 53 36 36 40 45 36 34 35 35 35
81 94 90 43 59 68 58 53 49 74 68 71 86 87 76 82 88 87 92 89 84 84 92 98 90 84 98 100 99 89 58 52 51 49 44 49 47 39 36 36 36 35 35 36
80 76 49 46 48 46 50 57 53 56 71 79 92 95 74 77 85 88 90 99 97 100 100 100 100 95 100 100 97 98 97 79 60 46 49 38 34 35 36 36 36 38 38 40
63 54 51 45 47 58 63 63 65 63 63 84 93 91 76 67 58 64 90 91 94 95 96 96 89 81 77 73 59 40 38 39 41 40 37 36 36 36 37 38 36 37 39 41
59 55 53 53 58 60 62 61 61 61 62 70 93 94 85 69 56 50 52 68 68 58 50 49 45 43 44 39 35 42 55 50 40 36 34 36 38 39 38 37 27 28 35 39
73 56 60 60 60 59 64 62 62 66 76 85 88 89 84 76 60 52 47 46 44 42 44 43 39 38 38 38 41 53 42 38 35 36 37 38 39 42 40 36 37 38 40 47
59 51 56 60 62 60 63 63 65 72 75 79 78 72 74 79 63 53 47 43 42 43 42 41 40 40 36 40 41 35 36 38 37 36 38 39 37 32 31 32 34 40 53 51
52 53 60 65 68 63 66 67 64 66 67 69 65 61 65 69 77 74 71 47 43 43 44 43 42 40 37 36 36 36 36 36 35 39 40 38 31 32 36 38 38 39 45 61
69 66 67 72 66 64 64 64 68 69 66 66 64 70 71 72 68 73 63 50 46 45 45 43 41 40 36 35 34 35 35 38 40 42 36 30 31 36 39 39 43 52 55 53
70 70 72 70 73 70 68 69 72 69 63 62 66 66 61 60 65 66 63 55 50 48 50 54 50 41 36 34 34 38 39 41 40 35 30 30 34 42 42 44 52 62 66 70
76 74 77 86 83 77 75 70 69 64 61 65 73 71 70 73 77 80 76 64 56 49 46 44 43 39 34 33 34 40 44 41 34 30 29 33 41 42 44 52 64 69 71 72
82 75 68 78 86 80 76 67 60 59 62 66 63 58 62 67 68 64 61 57 50 48 43 42 41 39 38 39 38 40 38 34 30 28 31 36 50 47 53 61 69 73 75 75
77 73 71 68 74 67 63 61 59 55 52 52 52 50 49 49 50 50 50 49 50 53 50 44 43 41 41 40 39 39 30 27 29 32 33 41 43 51 59 66 76 80 80 81
82 77 71 80 72 71 68 58 56 53 50 50 50 50 50 51 50 50 49 51 49 47 46 42 39 39 40 41 36 28 26 27 30 33 42 45 50 64 67 75 83 83 83 83
83 80 75 71 70 69 70 64 55 54 53 50 50 51 53 51 49 50 53 58 53 46 43 41 37 40 41 35 27 24 27 30 30 32 39 49 58 64 69 78 87 88 86 90
81 80 74 68 64 59 56 54 54 53 52 52 52 51 53 56 52 51 50 55 54 54 45 43 41 40 36 27 24 26 28 28 30 36 43 54 62 72 78 83 87 89 94 94
79 74 70 67 64 59 54 53 53 54 55 53 52 52 52 55 56 61 69 60 63 52 47 46 48 50 26 24 26 27 27 27 30 40 48 57 77 82 80 82 91 94 92 91
82 78 70 64 59 59 69 65 58 57 55 52 52 50 54 60 58 54 53 62 57 55 50 63 64 44 25 25 26 26 26 28 33 41 50 65 66 76 81 86 90 90 90 94
83 76 68 66 79 86 72 64 61 60 58 59 56 54 54 53 54 66 61 67 68 54 64 74 62 31 25 24 25 27 27 28 34 52 56 67 76 77 78 83 85 89 100 91
87 83 75 71 68 71 67 62 65 63 63 66 62 57 56 55 59 66 63 72 64 65 66 62 38 25 24 25 26 26 27 30 44 59 67 73 72 74 76 78 81 86 90 90
80 79 74 74 73 69 64 62 63 64 65 66 73 67 62 68 70 70 72 74 68 66 54 32 27 25 25 25 24 25 29 46 60 66 70 70 70 72 75 80 84 87 88 86
Wind_Speed
4 6 5 6 8 12 14 17 9 3 12 17 15 18 16 10 6 6 5 8 8 6 9 14 14 23 26 25 28 30 32 29 30 30 31 31 32 33 33 31 29 25 22 17
4 8 8 10 12 12 14 15 20 17 23 20 17 9 10 5 6 5 3 6 7 5 10 14 17 21 25 25 27 29 27 31 29 29 30 30 33 33 34 30 26 23 18 14
4 3 5 5 14 14 9 11 17 16 21 17 16 14 10 6 5 2 1 4 7 8 10 14 15 17 23 24 27 29 27 29 27 29 27 29 32 31 30 26 23 20 15 12
4 3 2 6 4 6 9 8 10 12 15 14 12 12 4 4 4 3 4 6 7 6 13 17 20 22 24 25 26 28 26 25 27 32 28 27 27 28 27 22 19 17 13 9
1 2 6 0 3 5 4 4 6 12 12 8 11 4 3 7 9 8 8 7 10 13 17 19 21 21 23 24 25 26 25 27 29 30 22 30 28 25 23 20 17 13 10 7
1 2 4 1 3 6 5 3 6 4 6 6 2 2 2 6 7 9 10 12 14 17 20 23 20 25 27 24 26 25 24 24 29 25 26 26 27 24 20 17 14 10 8 5
4 2 7 7 4 4 1 3 3 4 5 5 3 1 7 8 8 12 12 14 17 19 20 21 23 28 27 27 24 21 21 22 23 25 26 25 24 20 16 13 11 9 7 5
5 4 7 4 2 1 4 4 4 6 5 4 8 9 9 7 9 11 10 12 15 18 17 19 20 30 24 25 25 23 25 26 25 23 21 19 20 16 13 11 9 8 5 5
7 6 6 5 5 5 5 5 3 3 4 7 8 6 9 9 9 11 15 13 15 16 14 14 17 27 22 23 26 25 24 25 24 21 19 17 17 14 12 9 8 6 5 5
2 6 11 8 6 2 3 1 1 1 1 6 7 12 12 8 8 10 14 16 18 19 16 16 19 19 23 25 25 26 26 24 22 21 18 15 13 10 9 7 6 5 5 6
5 8 8 1 1 1 1 2 2 2 1 5 9 11 13 10 8 10 17 18 19 18 17 17 20 23 26 28 30 27 23 22 20 18 15 14 11 8 7 8 7 6 6 7
5 6 3 2 1 0 3 1 1 2 2 5 8 12 12 11 12 14 16 19 21 20 20 23 25 27 26 28 29 27 24 20 17 16 13 10 8 8 7 7 6 6 6 7
5 4 3 4 3 2 4 3 2 4 4 7 7 11 12 12 13 17 16 18 20 21 23 25 25 23 27 26 24 23 23 19 15 13 11 9 8 7 7 6 6 6 5 7
1 0 2 4 4 4 6 5 6 6 7 7 11 15 16 15 17 16 14 14 21 23 24 24 24 24 24 22 20 20 18 15 14 11 10 8 7 7 6 6 7 8 7 9
6 5 1 6 6 5 4 5 6 6 6 7 12 13 16 12 13 17 17 17 22 22 22 24 25 23 22 21 21 19 17 15 12 11 9 8 7 6 5 5 6 8 11 12
3 2 3 3 5 6 5 6 6 4 6 8 8 13 16 19 18 19 20 20 22 18 20 25 26 23 21 20 20 17 15 13 11 9 8 6 5 4 5 6 7 9 11 13
4 4 2 2 6 7 7 5 5 6 7 8 12 17 20 20 18 18 18 18 21 23 26 26 25 22 20 18 17 17 14 11 9 8 6 5 4 5 5 6 9 11 13 14
7 6 4 5 5 6 6 6 6 9 8 15 18 18 18 17 13 18 20 24 26 25 24 24 23 21 18 16 14 13 12 10 8 6 5 4 4 4 5 7 9 12 15 15
5 5 6 4 5 7 7 8 10 14 16 18 18 15 16 18 20 21 23 23 22 22 22 22 20 19 17 14 12 11 10 9 7 5 4 2 3 4 7 8 10 12 14 15
6 7 4 5 10 10 8 13 17 17 17 19 19 19 17 18 20 21 21 16 18 21 25 23 20 18 16 14 11 10 9 7 5 3 2 3 4 5 8 9 10 13 14 15
7 6 4 5 5 11 13 15 17 16 17 20 19 18 19 20 22 25 21 14 18 25 23 21 19 17 14 12 10 9 7 5 3 2 2 3 5 7 9 11 12 14 16 17
5 5 3 5 6 8 14 16 16 18 20 19 20 22 24 21 23 18 17 23 27 23 22 20 17 15 13 11 9 7 5 3 1 1 3 5 7 9 12 14 15 15 16 18
7 5 1 4 5 8 13 15 17 20 20 20 21 20 20 21 22 20 10 24 26 23 21 19 16 14 11 9 8 5 3 1 1 2 4 6 7 11 14 15 15 16 18 19
9 8 2 4 11 12 6 7 16 16 20 23 24 26 28 23 15 16 18 29 25 23 20 19 16 13 10 8 6 4 2 0 2 4 6 7 10 12 13 14 16 17 16 15
8 7 3 7 6 4 12 16 17 18 20 19 23 24 22 23 20 23 30 26 23 23 20 17 14 12 9 7 5 3 1 2 3 5 9 11 12 14 14 14 15 15 16 17
8 5 2 3 7 13 16 17 12 14 18 17 20 22 21 19 21 28 29 26 24 22 20 17 13 10 8 5 3 2 2 3 5 6 8 11 12 13 13 14 14 15 17 18
9 3 1 2 6 12 17 16 15 15 17 19 18 24 24 24 27 29 28 26 24 22 19 15 12 9 6 4 3 3 3 4 6 8 10 12 11 12 14 15 16 17 18 18
Wind_Direction
275 259 259 212 210 211 209 225 227 166 256 279 292 299 308 304 313 305 330 319 333 351 357 6 41 110 116 121 123 128 127 128 132 139 140 139 138 139 144 152 150 146 146 145
278 248 239 248 234 225 229 229 238 255 269 273 280 287 304 314 288 286 317 313 28 35 38 30 46 82 101 107 114 122 126 123 132 133 131 134 132 137 147 148 144 142 139 137
268 320 315 291 238 220 231 227 234 246 255 280 287 295 310 304 298 303 344 49 56 40 58 67 69 82 95 107 114 112 114 119 124 122 118 121 130 136 139 142 137 130 130 143
267 341 239 244 166 175 207 254 227 247 264 271 284 288 50 3 16 78 72 85 78 62 66 71 82 82 92 101 104 107 108 112 110 110 116 123 131 139 132 132 128 132 136 138
219 254 288 79 213 188 169 297 247 236 256 279 285 123 52 62 61 67 85 87 87 85 86 79 85 95 95 93 98 101 104 104 109 120 133 133 133 133 127 135 130 136 134 124
263 276 252 301 247 141 112 279 214 204 224 264 327 227 140 104 95 79 86 93 92 96 93 93 91 95 90 86 85 86 95 111 128 141 133 133 138 133 133 132 131 121 109 99
237 280 285 262 166 112 257 242 201 207 202 232 240 210 130 121 114 93 83 101 96 94 92 100 100 98 94 96 88 103 111 117 127 133 137 142 129 127 130 125 117 114 103 90
201 222 265 204 103 148 239 261 240 207 214 190 120 124 129 131 130 122 117 107 109 104 100 102 114 115 113 115 133 132 135 129 131 137 137 133 125 125 121 122 120 118 100 87
186 215 239 241 256 267 266 232 256 225 184 166 140 134 139 148 138 136 134 131 125 119 120 119 122 134 125 133 143 143 137 138 145 145 139 134 125 120 116 117 113 91 72 53
135 259 247 273 287 274 358 19 20 3 206 167 144 142 143 153 139 136 137 140 141 135 129 126 135 136 139 144 150 149 139 139 142 140 129 121 117 117 115 100 88 66 43 15
258 289 294 285 126 244 110 60 63 11 280 190 140 147 148 154 150 140 139 141 140 139 131 134 145 146 155 156 154 144 144 146 141 131 126 121 111 99 85 75 53 45 29 10
220 242 214 242 189 129 155 200 165 147 68 71 133 138 143 148 156 152 149 135 138 140 141 147 154 153 154 156 156 153 144 137 134 131 126 117 111 103 82 67 43 27 17 3
221 222 186 157 144 137 132 121 121 111 112 111 108 132 131 133 144 142 130 138 141 142 145 146 145 146 159 163 162 148 141 140 132 126 120 112 97 86 75 65 55 42 6 338
324 7 242 185 226 120 114 111 105 85 89 98 109 119 131 134 126 123 126 137 138 138 140 140 142 148 159 157 150 141 134 132 130 125 117 105 90 75 59 40 17 5 4 350
15 14 103 115 103 104 109 114 107 104 102 91 103 115 126 128 124 125 129 132 134 133 135 138 142 149 155 153 145 139 135 130 126 119 107 95 82 68 50 26 9 357 348 349
358 39 147 152 163 159 148 148 135 141 124 116 107 106 109 114 120 125 132 140 138 140 140 141 150 152 150 148 140 134 127 126 123 117 108 91 73 59 28 10 0 353 349 344
298 296 254 210 190 185 188 167 158 157 141 128 124 126 125 122 120 126 134 141 137 141 150 155 149 149 147 146 141 133 130 123 122 115 100 80 64 29 11 357 351 344 339 338
273 266 268 235 190 176 172 166 149 147 146 139 138 137 136 137 140 138 135 137 139 142 152 149 146 144 142 140 138 134 132 129 125 110 90 64 33 10 357 347 338 334 334 335
345 324 305 256 166 154 146 141 144 138 140 140 139 140 132 132 136 137 140 137 135 132 146 148 147 143 139 140 139 136 134 129 119 100 76 45 13 3 345 337 333 328 329 331
347 338 316 132 134 137 135 143 141 143 149 145 131 129 130 132 137 136 139 130 146 153 152 152 150 143 140 142 142 139 134 128 121 99 57 7 2 341 333 331 325 326 331 333
352 353 36 108 118 136 146 150 148 148 149 147 147 144 139 137 142 144 130 126 149 153 154 154 153 147 147 146 144 140 136 130 113 60 360 344 334 329 329 327 328 331 331 333
346 5 39 102 121 126 148 153 152 145 144 144 144 143 140 139 144 143 154 152 153 157 156 156 155 154 152 148 147 144 138 130 100 356 339 331 329 330 329 331 331 330 328 327
351 355 68 143 138 128 140 146 152 153 148 150 149 151 151 153 154 142 136 157 158 161 160 158 157 154 154 153 152 148 145 129 3 337 330 327 325 320 321 324 325 322 323 326
352 359 14 117 136 127 121 140 152 154 153 154 157 161 156 148 149 170 163 161 161 163 161 157 155 158 159 157 156 157 154 323 323 322 326 325 322 323 324 323 322 324 325 327
350 348 75 120 110 123 144 148 142 141 143 146 157 164 166 165 162 158 158 159 162 164 160 156 155 161 164 163 166 169 247 305 319 324 322 320 325 325 322 321 321 324 322 323
338 333 325 197 189 174 166 158 143 148 144 141 152 163 169 169 161 158 161 163 165 165 163 162 168 168 170 171 181 231 284 302 312 318 319 323 323 322 322 321 321 323 324 327
331 332 258 164 196 191 184 170 159 164 166 162 153 168 168 164 161 162 165 164 166 166 167 168 171 176 179 189 222 263 283 302 311 317 323 321 319 319 319 318 321 324 325 326